KC0RIG Weather Reports


time (UTC)temp
F
wind
direction
speed
knots
gust
knots
rain 1hr
in
rain 24hr
in
rain mn
in
humidity
%
barometer
mb
20260504173003 64 309 14.8 27.8 0.00 0.00 0.00 36 1004.6
20260504171004 64 307 13.0 22.6 0.00 0.00 0.00 37 1004.5
20260504141003 61 299 13.9 21.7 0.00 0.00 0.00 56 1003.1
20260504082003 48 219 7.0 10.4 0.00 0.00 0.00 67 1003.8
20260504081004 49 212 7.8 12.2 0.00 0.00 0.00 65 1003.8
20260504043004 49 236 0.9 2.6 0.00 0.00 0.00 61 1006.8
20260504042004 50 248 0.0 2.6 0.00 0.00 0.00 60 1007.0
20260504041004 50 239 1.7 2.6 0.00 0.00 0.00 61 1007.1
20260504040003 49 237 2.6 2.6 0.00 0.00 0.00 63 1007.3
20260504035004 49 209 1.7 2.6 0.00 0.00 0.00 62 1007.3
20260504033004 50 222 1.7 2.6 0.00 0.00 0.00 59 1007.8
20260504031004 52 226 0.9 1.7 0.00 0.00 0.00 56 1008.2
20260504025003 53 225 0.9 2.6 0.00 0.00 0.00 53 1008.3
20260504024003 54 229 1.7 2.6 0.00 0.00 0.00 52 1008.3
20260504022003 54 232 1.7 4.3 0.00 0.00 0.00 51 1008.2
20260504021004 55 257 0.9 2.6 0.00 0.00 0.00 49 1008.1
20260504015003 57 242 1.7 5.2 0.00 0.00 0.00 47 1008.3
20260504014003 58 249 1.7 6.1 0.00 0.00 0.00 46 1008.3
20260504013003 60 249 2.6 6.1 0.00 0.00 0.00 43 1008.3
20260504011004 63 265 6.1 8.7 0.00 0.00 0.00 37 1008.3
20260504005004 66 279 5.2 10.4 0.00 0.00 0.00 35 1008.3
20260504004003 67 270 7.0 10.4 0.00 0.00 0.00 34 1008.4
20260504003003 67 264 7.8 14.8 0.00 0.00 0.00 32 1008.4
20260504001004 69 265 10.4 15.6 0.00 0.00 0.00 30 1008.4
20260504000003 69 271 6.1 13.9 0.00 0.00 0.00 31 1008.5
20260503235004 70 275 8.7 13.9 0.00 0.00 0.00 31 1008.5
20260503234004 70 298 8.7 13.9 0.00 0.00 0.00 29 1008.6
20260503233004 70 266 10.4 13.9 0.00 0.00 0.00 30 1008.6
20260503232003 71 277 13.0 17.4 0.00 0.00 0.00 27 1008.7
20260503231003 71 295 7.8 12.2 0.00 0.00 0.00 29 1008.8
20260503225004 71 287 10.4 17.4 0.00 0.00 0.00 29 1009.1
20260503223003 71 287 11.3 17.4 0.00 0.00 0.00 29 1009.0
20260503222003 71 262 8.7 15.6 0.00 0.00 0.00 30 1009.0
20260503221004 71 293 9.6 17.4 0.00 0.00 0.00 29 1009.2
20260503220003 71 277 12.2 17.4 0.00 0.00 0.00 27 1009.4
20260503213004 71 292 7.0 18.2 0.00 0.00 0.00 30 1009.5
20260503212004 71 302 2.6 13.9 0.00 0.00 0.00 31 1009.6
20260503211003 71 301 12.2 17.4 0.00 0.00 0.00 32 1009.8
20260503205003 70 284 10.4 22.6 0.00 0.00 0.00 31 1010.2
20260503204004 70 299 12.2 17.4 0.00 0.00 0.00 30 1010.4
20260503203003 70 315 5.2 20.9 0.00 0.00 0.00 33 1010.5
20260503202004 71 299 11.3 18.2 0.00 0.00 0.00 34 1010.6
20260503201004 69 312 8.7 18.2 0.00 0.00 0.00 36 1010.8
20260503200003 69 303 13.9 19.1 0.00 0.00 0.00 34 1010.9
20260503194003 69 307 15.6 21.7 0.00 0.00 0.00 34 1011.1
20260503192004 68 309 10.4 18.2 0.00 0.00 0.00 35 1011.5
20260503191003 68 306 13.9 22.6 0.00 0.00 0.00 35 1011.5
20260503190004 68 322 13.9 21.7 0.00 0.00 0.00 36 1011.5
20260503185003 68 310 12.2 17.4 0.00 0.00 0.00 37 1011.6
20260503184004 68 293 14.8 20.9 0.00 0.00 0.00 37 1011.7
20260503183004 67 351 9.6 22.6 0.00 0.00 0.00 37 1011.7
20260503182005 68 310 13.9 21.7 0.00 0.00 0.00 36 1011.8
20260503181004 68 310 13.0 28.7 0.00 0.00 0.00 38 1012.0
20260503175004 66 315 13.9 24.3 0.00 0.00 0.00 38 1012.1
20260503174004 66 319 10.4 24.3 0.00 0.00 0.00 42 1012.1